H1 CPF 2 NER 2024 5 23 9 144 01 glonass145 H2 2213001 9145 54031 2024 5 23 0 0 0 2024 5 26 23 45 0 900 1 1 0 0 0 1 H9 10 0 60453 0.00000 0 -2790173.061 25137040.304 -3400155.553 10 0 60453 900.00000 0 -2674505.590 25377849.536 -199194.444 10 0 60453 1800.00000 0 -2513157.267 25216603.858 3005632.450 10 0 60453 2700.00000 0 -2361413.518 24653373.723 6152144.417 10 0 60453 3600.00000 0 -2273532.176 23701503.507 9179291.336 10 0 60453 4500.00000 0 -2300211.096 22387108.355 12028335.887 10 0 60453 5400.00000 0 -2486209.482 20748055.530 14643990.871 10 0 60453 6300.00000 0 -2868223.743 18832472.579 16975489.685 10 0 60453 7200.00000 0 -3473108.010 16696844.305 18977569.361 10 0 60453 8100.00000 0 -4316514.988 14403777.593 20611347.364 10 0 60453 9000.00000 0 -5402015.215 12019526.779 21845075.472 10 0 60453 9900.00000 0 -6720732.846 9611382.185 22654756.362 10 0 60453 10800.00000 0 -8251514.505 7245029.943 23024611.197 10 0 60453 11700.00000 0 -9961625.576 4981992.351 22947389.229 10 0 60453 12600.00000 0 -11807946.226 2877254.669 22424513.320 10 0 60453 13500.00000 0 -13738618.634 977176.470 21466058.309 10 0 60453 14400.00000 0 -15695077.898 -682226.094 20090562.147 10 0 60453 15300.00000 0 -17614382.865 -2076556.108 18324672.851 10 0 60453 16200.00000 0 -19431750.307 -3193817.131 16202637.431 10 0 60453 17100.00000 0 -21083186.994 -4034667.809 13765641.943 10 0 60453 18000.00000 0 -22508109.644 -4612139.826 11061014.883 10 0 60453 18900.00000 0 -23651842.853 -4950831.735 8141308.923 10 0 60453 19800.00000 0 -24467889.832 -5085613.350 5063278.590 10 0 60453 20700.00000 0 -24919880.001 -5059896.186 1886773.866 10 0 60453 21600.00000 0 -24983110.896 -4923543.924 -1326428.454 10 0 60453 22500.00000 0 -24645618.889 -4730512.289 -4513832.317 10 0 60453 23400.00000 0 -23908733.044 -4536319.349 -7613444.602 10 0 60453 24300.00000 0 -22787088.399 -4395454.466 -10564987.297 10 0 60453 25200.00000 0 -21308097.869 -4358836.754 -13311075.314 10 0 60453 26100.00000 0 -19510904.915 -4471431.651 -15798336.266 10 0 60453 27000.00000 0 -17444861.075 -4770127.384 -17978450.015 10 0 60453 27900.00000 0 -15167592.414 -5281961.826 -19809087.559 10 0 60453 28800.00000 0 -12742736.077 -6022775.253 -21254731.097 10 0 60453 29700.00000 0 -10237441.755 -6996346.265 -22287359.707 10 0 60453 30600.00000 0 -7719742.343 -8194047.668 -22886987.862 10 0 60453 31500.00000 0 -5255903.220 -9595037.108 -23042047.012 10 0 60453 32400.00000 0 -2907860.054 -11166974.813 -22749603.538 10 0 60453 33300.00000 0 -730850.972 -12867238.697 -22015409.478 10 0 60453 34200.00000 0 1228659.413 -14644586.350 -20853785.577 10 0 60453 35100.00000 0 2934679.011 -16441194.790 -19287339.272 10 0 60453 36000.00000 0 4362941.072 -18194993.144 -17346523.223 10 0 60453 36900.00000 0 5501660.127 -19842191.153 -15069042.959 10 0 60453 37800.00000 0 6351761.167 -21319898.207 -12499124.972 10 0 60453 38700.00000 0 6926574.054 -22568723.725 -9686659.197 10 0 60453 39600.00000 0 7251007.446 -23535250.318 -6686232.285 10 0 60453 40500.00000 0 7360238.240 -24174276.387 -3556070.172 10 0 60453 41400.00000 0 7297972.711 -24450734.280 -356910.261 10 0 60453 42300.00000 0 7114353.523 -24341203.551 2849174.982 10 0 60453 43200.00000 0 6863601.507 -23834955.761 5999980.234 10 0 60453 44100.00000 0 6601492.253 -22934486.749 9034372.042 10 0 60453 45000.00000 0 6382774.442 -21655513.721 11893472.648 10 0 60453 45900.00000 0 6258639.230 -20026436.811 14521800.016 10 0 60453 46800.00000 0 6274347.775 -18087287.138 16868342.064 10 0 60453 47700.00000 0 6467117.348 -15888204.696 18887544.428 10 0 60453 48600.00000 0 6864355.541 -13487509.006 20540192.873 10 0 60453 49500.00000 0 7482317.523 -10949442.206 21794173.550 10 0 60453 50400.00000 0 8325243.551 -8341677.890 22625096.626 10 0 60453 51300.00000 0 9385013.949 -5732698.566 23016771.426 10 0 60453 52200.00000 0 10641337.115 -3189149.994 22961523.971 10 0 60453 53100.00000 0 12062463.944 -773281.670 22460350.685 10 0 60453 54000.00000 0 13606399.977 1459420.902 21522904.987 10 0 60453 54900.00000 0 15222565.798 3462314.351 20167316.608 10 0 60453 55800.00000 0 16853837.228 5199300.125 18419846.473 10 0 60453 56700.00000 0 18438880.771 6646081.374 16314383.166 10 0 60453 57600.00000 0 19914687.060 7790922.172 13891789.997 10 0 60453 58500.00000 0 21219196.317 8634877.956 11199114.734 10 0 60453 59400.00000 0 22293905.579 9191488.188 8288676.877 10 0 60453 60300.00000 0 23086347.803 9485944.940 5217049.960 10 0 60453 61200.00000 0 23552337.970 9553773.221 2043958.768 10 0 60453 62100.00000 0 23657890.901 9439079.683 -1168886.775 10 0 60453 63000.00000 0 23380729.200 9192444.689 -4358997.790 10 0 60453 63900.00000 0 22711316.977 8868547.985 -7464328.429 10 0 60453 64800.00000 0 21653375.107 8523629.586 -10424489.065 10 0 60453 65700.00000 0 20223855.773 8212894.423 -13181926.295 10 0 60453 66600.00000 0 18452376.965 7987971.623 -15683046.050 10 0 60453 67500.00000 0 16380140.491 7894536.771 -17879257.555 10 0 60453 68400.00000 0 14058378.766 7970198.364 -19727917.602 10 0 60453 69300.00000 0 11546395.427 8242738.243 -21193156.865 10 0 60453 70200.00000 0 8909281.693 8728780.542 -22246572.531 10 0 60453 71100.00000 0 6215403.632 9432945.474 -22867774.346 10 0 60453 72000.00000 0 3533764.874 10347523.621 -23044774.128 10 0 60453 72900.00000 0 931354.064 11452684.531 -22774211.895 10 0 60453 73800.00000 0 -1529413.329 12717210.931 -22061414.863 10 0 60453 74700.00000 0 -3793053.385 14099727.887 -20920288.703 10 0 60453 75600.00000 0 -5813075.451 15550375.579 -19373043.521 10 0 60453 76500.00000 0 -7553662.822 17012855.868 -17449760.033 10 0 60453 77400.00000 0 -8990903.869 18426767.174 -15187804.363 10 0 60453 78300.00000 0 -10113523.927 19730130.149 -12631102.648 10 0 60453 79200.00000 0 -10923088.933 20861998.582 -9829289.291 10 0 60453 80100.00000 0 -11433673.831 21765046.249 -6836745.129 10 0 60453 81000.00000 0 -11671011.041 22388021.334 -3711543.958 10 0 60453 81900.00000 0 -11671155.969 22687965.445 -514327.609 10 0 60453 82800.00000 0 -11478726.722 22632103.924 2692868.629 10 0 60453 83700.00000 0 -11144792.962 22199327.889 5847817.528 10 0 60453 84600.00000 0 -10724503.520 21381205.377 8889305.099 10 0 60453 85500.00000 0 -10274553.286 20182478.681 11758315.977 10 0 60454 0.00000 0 -9850596.585 18621026.540 14399175.907 10 0 60454 900.00000 0 -9504716.156 16727291.132 16760630.594 10 0 60454 1800.00000 0 -9283055.222 14543195.174 18796836.724 10 0 60454 2700.00000 0 -9223711.885 12120590.677 20468250.894 10 0 60454 3600.00000 0 -9354985.356 9519305.104 21742395.954 10 0 60454 4500.00000 0 -9694048.020 6804864.574 22594491.604 10 0 60454 5400.00000 0 -10246099.733 4045988.003 23007937.030 10 0 60454 6300.00000 0 -11004040.611 1311955.344 22974636.329 10 0 60454 7200.00000 0 -11948676.942 -1330041.566 22495160.313 10 0 60454 8100.00000 0 -13049452.536 -3817456.372 21578741.309 10 0 60454 9000.00000 0 -14265675.894 -6094748.267 20243100.599 10 0 60454 9900.00000 0 -15548192.660 -8115447.259 18514111.226 10 0 60454 10800.00000 0 -16841434.028 -9843839.267 16425302.011 10 0 60454 11700.00000 0 -18085755.745 -11256201.382 14017211.665 10 0 60454 12600.00000 0 -19219969.754 -12341536.208 11336604.912 10 0 60454 13500.00000 0 -20183962.062 -13101775.154 8435565.377 10 0 60454 14400.00000 0 -20921286.391 -13551442.849 5370482.590 10 0 60454 15300.00000 0 -21381623.767 -13716797.495 2200952.896 10 0 60454 16200.00000 0 -21523003.619 -13634484.279 -1011384.060 10 0 60454 17100.00000 0 -21313691.812 -13349759.598 -4204050.075 10 0 60454 18000.00000 0 -20733665.005 -12914362.175 -7314950.130 10 0 60454 18900.00000 0 -19775608.252 -12384122.148 -10283586.525 10 0 60454 19800.00000 0 -18445392.986 -11816410.335 -13052241.005 10 0 60454 20700.00000 0 -16762014.570 -11267536.554 -15567101.127 10 0 60454 21600.00000 0 -14756991.541 -10790207.861 -17779308.513 10 0 60454 22500.00000 0 -12473251.354 -10431154.750 -19645908.406 10 0 60454 23400.00000 0 -9963549.074 -10229026.008 -21130682.106 10 0 60454 24300.00000 0 -7288484.911 -10212641.202 -22204846.462 10 0 60454 25200.00000 0 -4514203.106 -10399674.470 -22847607.382 10 0 60454 26100.00000 0 -1709867.753 -10795824.881 -23046557.260 10 0 60454 27000.00000 0 1054979.825 -11394508.028 -22797909.304 10 0 60454 27900.00000 0 3713072.974 -12177081.587 -22106564.864 10 0 60454 28800.00000 0 6201971.441 -13113595.149 -20986012.982 10 0 60454 29700.00000 0 8466408.009 -14164032.739 -19458064.451 10 0 60454 30600.00000 0 10460333.685 -15279995.824 -17552425.716 10 0 60454 31500.00000 0 12148577.704 -16406756.226 -15306120.872 10 0 60454 32400.00000 0 13508054.667 -17485592.881 -12762772.846 10 0 60454 33300.00000 0 14528469.962 -18456314.466 -9971757.460 10 0 60454 34200.00000 0 15212495.407 -19259862.031 -6987246.555 10 0 60454 35100.00000 0 15575409.196 -19840882.361 -3867158.510 10 0 60454 36000.00000 0 15644216.464 -20150163.831 -672036.298 10 0 60454 36900.00000 0 15456288.508 -20146832.215 2536125.196 10 0 60454 37800.00000 0 15057578.783 -19800213.817 5695079.923 10 0 60454 38700.00000 0 14500491.478 -19091287.182 8743536.206 10 0 60454 39600.00000 0 13841492.961 -18013661.794 11622343.649 10 0 60454 40500.00000 0 13138567.101 -16574041.946 14275638.419 10 0 60454 41400.00000 0 12448621.882 -14792155.427 16651924.875 10 0 60454 42300.00000 0 11824956.680 -12700149.030 18705072.631 10 0 60454 43200.00000 0 11314896.902 -10341475.033 20395210.081 10 0 60454 44100.00000 0 10957695.574 -7769313.932 21689497.282 10 0 60454 45000.00000 0 10782790.257 -5044598.019 22562763.564 10 0 60454 45900.00000 0 10808488.737 -2233716.808 22997997.668 10 0 60454 46800.00000 0 11041139.048 594001.431 22986681.084 10 0 60454 47700.00000 0 11474819.145 3368928.426 22528958.006 10 0 60454 48600.00000 0 12091559.861 6023786.388 21633638.383 10 0 60454 49500.00000 0 12862092.484 8496200.907 20318033.540 10 0 60454 50400.00000 0 13747090.263 10731050.902 18607626.953 10 0 60454 51300.00000 0 14698852.340 12682518.400 16535585.859 10 0 60454 52200.00000 0 15663359.861 14315753.310 14142122.437 10 0 60454 53100.00000 0 16582618.042 15608084.096 11473716.349 10 0 60454 54000.00000 0 17397185.636 16549724.218 8582213.235 10 0 60454 54900.00000 0 18048784.943 17143945.235 5523816.439 10 0 60454 55800.00000 0 18482881.758 17406709.914 2357991.625 10 0 60454 56700.00000 0 18651125.603 17365781.459 -853694.121 10 0 60454 57600.00000 0 18513546.276 17059347.279 -4048775.542 10 0 60454 58500.00000 0 18040412.910 16534216.274 -7165110.658 10 0 60454 59400.00000 0 17213676.033 15843666.807 -10142095.801 10 0 60454 60300.00000 0 16027930.741 15045037.283 -12921849.808 10 0 60454 61200.00000 0 14490859.531 14197162.151 -15450343.619 10 0 60454 62100.00000 0 12623135.351 13357762.449 -17678452.822 10 0 60454 63000.00000 0 10457788.301 12580901.734 -19562912.487 10 0 60454 63900.00000 0 8039062.041 11914615.131 -21067155.742 10 0 60454 64800.00000 0 5420807.331 11398811.577 -22162020.146 10 0 60454 65700.00000 0 2664479.352 11063537.515 -22826308.651 10 0 60454 66600.00000 0 -163178.041 10927674.748 -23047194.910 10 0 60454 67500.00000 0 -2992665.281 10998126.751 -22820465.763 10 0 60454 68400.00000 0 -5754372.531 11269527.039 -22150596.852 10 0 60454 69300.00000 0 -8381228.426 11724481.313 -21050660.390 10 0 60454 70200.00000 0 -10811242.978 12334332.653 -19542067.291 10 0 60454 71100.00000 0 -12989840.074 13060417.256 -17654148.777 10 0 60454 72000.00000 0 -14871883.710 13855757.654 -15423585.636 10 0 60454 72900.00000 0 -16423314.915 14667122.069 -12893696.013 10 0 60454 73800.00000 0 -17622332.459 15437363.269 -10113595.363 10 0 60454 74700.00000 0 -18460069.329 16107938.464 -7137244.575 10 0 60454 75600.00000 0 -18940737.994 16621504.183 -4022404.547 10 0 60454 76500.00000 0 -19081239.509 16924476.775 -829517.239 10 0 60454 77400.00000 0 -18910253.922 16969450.554 2379465.098 10 0 60454 78300.00000 0 -18466851.073 16717371.461 5542279.904 10 0 60454 79200.00000 0 -17798680.897 16139374.288 8597560.209 10 0 60454 80100.00000 0 -16959819.919 15218205.573 11486023.029 10 0 60454 81000.00000 0 -16008364.918 13949171.573 14151617.250 10 0 60454 81900.00000 0 -15003875.232 12340570.563 16542608.855 10 0 60454 82800.00000 0 -14004771.379 10413590.257 18612582.607 10 0 60454 83700.00000 0 -13065799.362 8201673.392 20321341.016 10 0 60454 84600.00000 0 -12235667.130 5749376.653 21635683.502 10 0 60454 85500.00000 0 -11554952.366 3110769.154 22530050.901 10 0 60455 0.00000 0 -11054369.423 347436.040 22987023.057 10 0 60455 900.00000 0 -10753467.876 -2473832.609 22997660.129 10 0 60455 1800.00000 0 -10659818.044 -5283569.020 22561680.415 10 0 60455 2700.00000 0 -10768716.966 -8012272.199 21687471.827 10 0 60455 3600.00000 0 -11063428.191 -10593057.038 20391935.607 10 0 60455 4500.00000 0 -11515945.380 -12964200.191 18700165.071 10 0 60455 5400.00000 0 -12088248.053 -15071477.183 16644964.820 10 0 60455 6300.00000 0 -12733996.993 -16870193.862 14266219.022 10 0 60455 7200.00000 0 -13400598.091 -18326827.786 11610120.401 10 0 60455 8100.00000 0 -14031547.642 -19420211.252 8728274.411 10 0 60455 9000.00000 0 -14568959.909 -20142206.744 5676695.725 10 0 60455 9900.00000 0 -14956169.720 -20497846.822 2514716.606 10 0 60455 10800.00000 0 -15140299.398 -20504933.085 -696171.312 10 0 60455 11700.00000 0 -15074680.581 -20193111.688 -3893518.783 10 0 60455 12600.00000 0 -14721027.489 -19602465.172 -7015140.056 10 0 60455 13500.00000 0 -14051268.654 -18781680.836 -10000328.772 10 0 60455 14400.00000 0 -13048958.636 -17785873.940 -12791044.190 10 0 60455 15300.00000 0 -11710209.118 -16674158.474 -15333043.927 10 0 60455 16200.00000 0 -10044099.183 -15507068.863 -17576940.695 10 0 60455 17100.00000 0 -8072546.696 -14343941.973 -19479162.298 10 0 60455 18000.00000 0 -5829645.498 -13240370.165 -21002796.226 10 0 60455 18900.00000 0 -3360495.522 -12245832.756 -22118302.795 10 0 60455 19800.00000 0 -719574.220 -11401605.377 -22804083.473 10 0 60455 20700.00000 0 2031283.310 -10739034.652 -23046894.041 10 0 60455 21600.00000 0 4825211.891 -10278250.026 -22842095.226 10 0 60455 22500.00000 0 7592855.321 -10027365.996 -22193736.618 10 0 60455 23400.00000 0 10265012.067 -9982207.351 -21114472.739 10 0 60455 24300.00000 0 12775278.438 -10126568.078 -19625313.268 10 0 60455 25200.00000 0 15062580.333 -10432992.245 -17755212.421 10 0 60455 26100.00000 0 17073489.267 -10864043.376 -15540505.467 10 0 60455 27000.00000 0 18764227.325 -11374008.412 -13024203.185 10 0 60455 27900.00000 0 20102278.677 -11910964.187 -10255157.699 10 0 60455 28800.00000 0 21067541.456 -12419119.122 -7287115.678 10 0 60455 29700.00000 0 21652972.982 -12841331.285 -4177677.000 10 0 60455 30600.00000 0 21864702.361 -13121696.519 -987178.922 10 0 60455 31500.00000 0 21721606.643 -13208097.264 2222472.684 10 0 60455 32400.00000 0 21254369.137 -13054604.358 5389002.408 10 0 60455 33300.00000 0 20504060.097 -12623630.133 8450971.436 10 0 60455 34200.00000 0 19520299.897 -11887741.529 11348967.334 10 0 60455 35100.00000 0 18359082.239 -10831056.203 14026754.425 10 0 60455 36000.00000 0 17080349.044 -9450161.970 16432362.584 10 0 60455 36900.00000 0 15745418.947 -7754519.892 18519093.471 10 0 60455 37800.00000 0 14414377.268 -5766332.859 20246424.976 10 0 60455 38700.00000 0 13143536.798 -3519883.703 21580796.630 10 0 60455 39600.00000 0 11983075.652 -1060369.034 22496261.052 10 0 60455 40500.00000 0 10974950.940 1557724.135 22974989.029 10 0 60455 41400.00000 0 10151175.397 4272632.897 23007618.585 10 0 60455 42300.00000 0 9532529.024 7017641.691 22593441.198 10 0 60455 43200.00000 0 9127759.566 9723618.971 21740421.316 10 0 60455 44100.00000 0 8933305.317 12321662.985 20465048.359 10 0 60455 45000.00000 0 8933551.885 14745747.476 18792023.468 10 0 60455 45900.00000 0 9101612.205 16935257.887 16753786.382 10 0 60455 46800.00000 0 9400597.025 18837312.870 14389890.865 10 0 60455 47700.00000 0 9785322.367 20408774.489 11746240.200 10 0 60455 48600.00000 0 10204381.821 21617863.273 8874197.055 10 0 60455 49500.00000 0 10602495.910 22445310.637 5829584.791 10 0 60455 50400.00000 0 10923038.714 22885000.449 2671599.618 10 0 60455 51300.00000 0 11110634.210 22944073.037 -538344.919 10 0 60455 52200.00000 0 11113711.548 22642487.620 -3737818.114 10 0 60455 53100.00000 0 10886910.102 22012062.089 -6864592.840 10 0 60455 54000.00000 0 10393231.393 21095031.276 -9857862.241 10 0 60455 54900.00000 0 9605845.745 19942185.248 -12659427.951 10 0 60455 55800.00000 0 8509476.226 18610666.925 -15214835.947 10 0 60455 56700.00000 0 7101300.466 17161522.583 -17474437.500 10 0 60455 57600.00000 0 5391331.396 15657109.076 -19394354.337 10 0 60455 58500.00000 0 3402260.084 14158467.295 -20937329.282 10 0 60455 59400.00000 0 1168766.517 12722772.490 -22073446.165 10 0 60455 60300.00000 0 -1263673.516 11400968.373 -22780705.539 10 0 60455 61200.00000 0 -3840436.190 10235683.882 -23045445.637 10 0 60455 62100.00000 0 -6499783.959 9259519.220 -22862601.133 10 0 60455 63000.00000 0 -9175202.354 8493772.068 -22235795.305 10 0 60455 63900.00000 0 -11797942.652 7947656.262 -21177264.352 10 0 60455 64800.00000 0 -14299665.454 7618044.503 -19707615.706 10 0 60455 65700.00000 0 -16615076.022 7489744.730 -17855425.193 10 0 60455 66600.00000 0 -18684442.573 7536297.501 -15656680.866 10 0 60455 67500.00000 0 -20455893.596 7721259.933 -13154084.193 10 0 60455 68400.00000 0 -21887399.371 7999921.464 -10396221.876 10 0 60455 69300.00000 0 -22948355.870 8321378.592 -7436624.170 10 0 60455 70200.00000 0 -23620705.771 8630880.728 -4332727.731 10 0 60455 71100.00000 0 -23899550.480 8872347.857 -1144762.896 10 0 60455 72000.00000 0 -23793228.262 8990953.502 2065413.057 10 0 60455 72900.00000 0 -23322855.869 8935663.621 5235514.084 10 0 60455 73800.00000 0 -22521353.386 8661623.963 8304031.777 10 0 60455 74700.00000 0 -21431993.670 8132294.638 11211426.517 10 0 60455 75600.00000 0 -20106537.496 7321241.335 13901280.331 10 0 60455 76500.00000 0 -18603032.819 6213506.913 16321389.211 10 0 60455 77400.00000 0 -16983370.441 4806504.726 18424773.849 10 0 60455 78300.00000 0 -15310698.426 3110394.944 20170589.471 10 0 60455 79200.00000 0 -13646803.295 1147926.720 21524917.437 10 0 60455 80100.00000 0 -12049567.326 -1046248.681 22461423.561 10 0 60455 81000.00000 0 -10570607.933 -3426766.749 22961870.625 10 0 60455 81900.00000 0 -9253197.413 -5939192.606 23016475.307 10 0 60455 82800.00000 0 -8130549.688 -8522051.026 22624102.525 10 0 60455 83700.00000 0 -7224545.303 -11109160.508 21792293.208 10 0 60455 84600.00000 0 -6544947.708 -13632175.550 20537124.530 10 0 60455 85500.00000 0 -6089143.407 -16023232.265 18882904.672 10 0 60456 0.00000 0 -5842416.619 -18217587.732 16861707.586 10 0 60456 900.00000 0 -5778746.607 -20156144.668 14512754.838 10 0 60456 1800.00000 0 -5862094.140 -21787753.382 11881658.716 10 0 60456 2700.00000 0 -6048122.146 -23071198.746 9019537.168 10 0 60456 3600.00000 0 -6286277.861 -23976785.960 5982020.101 10 0 60456 4500.00000 0 -6522147.742 -24487459.692 2828165.381 10 0 60456 5400.00000 0 -6699984.814 -24599409.375 -380693.949 10 0 60456 6300.00000 0 -6765300.574 -24322135.217 -3582148.275 10 0 60456 7200.00000 0 -6667410.642 -23677972.388 -6713931.750 10 0 60456 8100.00000 0 -6361825.254 -22701093.763 -9715139.796 10 0 60456 9000.00000 0 -5812382.283 -21436033.789 -12527419.285 10 0 60456 9900.00000 0 -4993031.447 -19935796.240 -15096107.465 10 0 60456 10800.00000 0 -3889193.273 -18259626.210 -17371297.029 10 0 60456 11700.00000 0 -2498634.560 -16470540.591 -19308806.356 10 0 60456 12600.00000 0 -831822.578 -14632721.330 -20871036.086 10 0 60456 13500.00000 0 1088257.632 -12808881.032 -22027695.705 10 0 60456 14400.00000 0 3226815.947 -11057711.331 -22756386.544 10 0 60456 15300.00000 0 5538470.662 -9431520.523 -23043030.506 10 0 60456 16200.00000 0 7968912.754 -7974158.642 -22882136.917 10 0 60456 17100.00000 0 10456952.156 -6719315.795 -22276902.939 10 0 60456 18000.00000 0 12936861.405 -5689263.764 -21239146.159 10 0 60456 18900.00000 0 15340919.764 -4894092.170 -19789071.006 10 0 60456 19800.00000 0 17602052.623 -4331469.782 -17954873.691 10 0 60456 20700.00000 0 19656456.951 -3986939.612 -15772193.377 10 0 60456 21600.00000 0 21446104.183 -3834734.136 -13283420.080 10 0 60456 22500.00000 0 22921016.871 -3839075.269 -10536872.479 10 0 60456 23400.00000 0 24041224.773 -3955903.495 -7585861.406 10 0 60456 24300.00000 0 24778319.283 -4134962.553 -4487656.903 10 0 60456 25200.00000 0 25116541.789 -4322151.193 -1302378.741 10 0 60456 26100.00000 0 25053360.900 -4462042.315 1908168.181 10 0 60456 27000.00000 0 24599514.779 -4500462.726 5081690.984 10 0 60456 27900.00000 0 23778517.181 -4387024.186 8156615.321 10 0 60456 28800.00000 0 22625648.126 -4077498.504 11073277.797 10 0 60456 29700.00000 0 21186471.647 -3535935.908 13775081.194 10 0 60456 30600.00000 0 19514942.774 -2736436.733 16209590.260 10 0 60456 31500.00000 0 17671182.922 -1664501.001 18329546.898 10 0 60456 32400.00000 0 15719016.594 -317898.101 20093785.373 10 0 60456 33300.00000 0 13723372.080 1292981.192 21468030.102 10 0 60456 34200.00000 0 11747654.363 3145306.493 22425560.840 10 0 60456 35100.00000 0 9851199.484 5204517.347 22947732.632 10 0 60456 36000.00000 0 8086916.049 7425532.506 23024340.587 10 0 60456 36900.00000 0 6499211.832 9754410.079 22653822.355 10 0 60456 37800.00000 0 5122291.448 12130390.862 21843294.183 10 0 60456 38700.00000 0 3978895.696 14488241.071 20608419.372 10 0 60456 39600.00000 0 3079534.799 16760797.909 18973111.138 10 0 60456 40500.00000 0 2422247.197 18881612.715 16969074.904 10 0 60456 41400.00000 0 1992893.522 20787581.909 14635198.152 10 0 60456 42300.00000 0 1765972.990 22421456.084 12016799.044 10 0 60456 43200.00000 0 1705927.305 23734122.264 9164747.863 10 0 60456 44100.00000 0 1768876.558 24686563.550 6134478.052 10 0 60456 45000.00000 0 1904713.091 25251413.629 2984906.103 10 0 60456 45900.00000 0 2059464.003 25414040.550 -222718.427 10 0 60456 46800.00000 0 2177821.354 25173113.949 -3426009.894 10 0 60456 47700.00000 0 2205731.850 24540631.717 -6562666.433 10 0 60456 48600.00000 0 2092935.250 23541405.081 -9571688.215 10 0 60456 49500.00000 0 1795342.808 22212023.965 -12394569.522 10 0 60456 50400.00000 0 1277154.036 20599346.588 -14976440.746 10 0 60456 51300.00000 0 512621.225 18758577.245 -17267137.559 10 0 60456 52200.00000 0 -512613.688 16751013.547 -19222176.250 10 0 60456 53100.00000 0 -1800667.143 14641558.028 -20803616.263 10 0 60456 54000.00000 0 -3341083.409 12496098.673 -21980793.462 10 0 60456 54900.00000 0 -5111040.079 10378867.996 -22730910.429 10 0 60456 55800.00000 0 -7076081.570 8349890.826 -23039472.932 10 0 60456 56700.00000 0 -9191350.539 6462626.815 -22900564.826 10 0 60456 57600.00000 0 -11403266.361 4761905.163 -22316956.687 10 0 60456 58500.00000 0 -13651581.195 3282236.641 -21300046.621 10 0 60456 59400.00000 0 -15871728.476 2046571.994 -19869634.766 10 0 60456 60300.00000 0 -17997366.582 1065557.064 -18053536.056 10 0 60456 61200.00000 0 -19963012.188 337314.273 -15887038.756 10 0 60456 62100.00000 0 -21706654.085 -152241.915 -13412219.158 10 0 60456 63000.00000 0 -23172238.952 -428570.190 -10677125.487 10 0 60456 63900.00000 0 -24311925.727 -527184.533 -7734846.617 10 0 60456 64800.00000 0 -25088014.796 -491909.790 -4642483.437 10 0 60456 65700.00000 0 -25474471.639 -372785.027 -1460042.614 10 0 60456 66600.00000 0 -25457981.415 -223703.742 1750725.831 10 0 60456 67500.00000 0 -25038490.525 -99891.099 4927524.655 10 0 60456 68400.00000 0 -24229212.548 -55325.117 8008716.002 10 0 60456 69300.00000 0 -23056098.372 -140211.170 10934515.076 10 0 60456 70200.00000 0 -21556792.631 -398616.809 13648147.721 10 0 60456 71100.00000 0 -19779120.010 -866367.221 16096949.606 10 0 60456 72000.00000 0 -17779164.514 -1569290.652 18233385.812 10 0 60456 72900.00000 0 -15619021.643 -2521888.472 20015971.350 10 0 60456 73800.00000 0 -13364316.914 -3726486.787 21410075.069 10 0 60456 74700.00000 0 -11081593.770 -5172906.393 22388591.661 10 0 60456 75600.00000 0 -8835679.208 -6838666.287 22932469.024 10 0 60456 76500.00000 0 -6687136.236 -8689713.713 23031080.884 10 0 60456 77400.00000 0 -4689908.712 -10681651.760 22682437.436 10 0 60456 78300.00000 0 -2889255.993 -12761414.758 21893229.678 10 0 60456 79200.00000 0 -1320062.900 -14869322.957 20678706.173 10 0 60456 80100.00000 0 -5594.910 -16941431.870 19062384.003 10 0 60456 81000.00000 0 1043249.988 -18912079.135 17075598.830 10 0 60456 81900.00000 0 1828162.057 -20716523.091 14756902.024 10 0 60456 82800.00000 0 2363104.496 -22293562.985 12151315.906 10 0 60456 83700.00000 0 2673475.946 -23588031.088 9309461.042 10 0 60456 84600.00000 0 2794786.767 -24553051.990 6286572.224 10 0 60456 85500.00000 0 2770905.675 -25151973.769 3141422.289 99